Wind_Speed
35 36 37 37 36 36 37 37 39 37 36 34 36 38 38 38 39 39 40 41 43 45 47 49 51 53 55 58 61 63 66 68 70 73 75 77 79 82 84 86 88 88 88 86
37 37 39 39 36 37 38 39 40 40 37 35 37 38 39 39 40 41 42 44 46 48 50 52 54 57 59 62 65 67 69 71 74 76 78 80 83 85 86 87 88 86 84 81
40 39 42 41 37 38 40 40 41 40 38 38 37 38 39 40 42 43 45 47 48 50 52 55 58 60 63 65 68 70 73 75 77 79 81 83 85 87 87 87 85 82 78 75
43 42 44 41 40 39 41 41 40 40 39 39 39 39 41 42 43 45 47 49 51 53 55 58 61 63 66 69 71 73 75 77 79 82 84 85 86 87 86 84 80 76 72 68
45 46 46 42 41 41 42 41 40 40 40 40 41 42 43 44 45 47 49 51 53 55 58 61 64 67 69 71 73 75 77 79 81 83 85 86 86 85 82 79 74 70 66 64
46 48 49 45 43 42 43 43 39 40 41 41 42 43 44 46 47 49 52 54 56 58 61 64 67 69 71 73 75 77 79 81 82 84 85 85 83 81 77 73 69 65 62 60
46 49 50 46 45 43 43 42 41 41 41 42 43 44 46 47 50 52 54 56 59 61 64 67 69 71 73 75 77 78 80 81 83 83 83 82 79 75 72 68 64 61 59 57
47 49 47 46 45 44 43 43 42 42 42 43 44 46 48 50 52 54 56 59 61 64 66 69 71 74 75 76 78 79 81 82 82 81 79 77 74 69 66 63 60 58 56 53
47 47 46 45 44 44 43 43 43 43 44 45 46 48 50 52 54 56 59 61 64 66 68 70 73 75 76 78 79 80 81 81 80 77 74 71 68 65 61 59 57 55 53 50
47 46 45 45 44 44 44 44 44 45 46 47 49 51 52 54 56 58 61 64 66 68 70 72 74 75 77 79 80 81 80 79 76 73 70 66 63 61 59 56 54 52 50 48
46 45 45 44 44 44 44 44 45 46 47 49 51 52 54 56 59 61 64 66 68 70 72 73 75 76 78 80 80 80 78 75 72 69 65 62 58 56 55 53 52 51 49 47
45 44 44 44 44 44 44 45 46 48 49 51 52 54 56 59 61 63 66 68 70 72 73 74 76 77 78 79 79 78 75 72 68 65 61 58 54 51 50 50 49 49 48 47
43 43 43 43 43 44 45 46 47 49 51 53 55 57 59 61 63 66 68 70 72 73 74 75 77 77 78 77 76 74 71 68 64 60 58 55 52 50 47 44 45 46 46 45
42 42 42 42 43 45 46 47 49 51 53 55 57 59 62 64 66 68 69 71 72 73 75 76 77 77 76 75 73 70 67 63 60 57 54 52 50 48 46 44 41 40 41 42
41 41 42 43 44 46 47 49 51 53 55 57 59 62 64 66 67 69 70 71 73 74 75 76 76 75 74 72 69 66 62 59 56 54 51 49 48 46 45 43 41 40 39 39
40 41 43 44 45 47 49 51 53 55 57 59 61 64 65 67 68 69 70 72 74 74 75 75 74 73 71 69 65 62 58 56 53 51 48 47 45 44 43 41 40 39 39 38
41 42 43 45 47 49 51 52 54 57 59 61 63 65 66 67 69 69 71 72 74 74 74 74 72 70 68 65 61 58 54 51 49 48 46 45 44 42 41 39 38 38 37 37
42 44 46 47 49 51 52 54 57 59 61 63 64 66 67 68 69 70 72 73 73 73 72 71 69 66 63 61 57 54 50 48 46 45 43 42 41 40 39 38 37 36 34 34
44 45 47 49 50 52 55 57 59 60 62 64 65 66 68 69 71 72 73 73 73 71 69 67 65 62 59 56 53 49 46 44 43 42 41 40 39 38 37 36 35 33 32 32
45 47 49 51 53 55 57 58 60 61 63 65 67 68 69 70 72 73 73 71 71 70 67 63 60 57 54 51 48 45 43 42 41 40 39 37 36 35 34 33 32 32 31 31
48 50 51 53 55 56 58 59 61 63 65 67 69 70 71 71 72 72 71 69 67 66 63 59 56 53 49 46 43 41 40 39 38 37 36 35 34 33 32 31 30 30 30 30
50 51 53 55 56 57 59 61 63 65 67 68 70 71 72 71 71 70 69 67 64 61 58 54 51 48 45 42 40 38 37 37 36 35 34 33 32 31 30 29 29 29 28 29
52 53 55 56 58 59 61 63 65 67 68 69 70 71 71 71 70 68 65 62 59 56 53 49 46 43 40 38 37 36 35 34 33 32 32 31 30 29 28 27 27 27 27 27
54 55 57 59 60 62 64 65 67 68 69 69 70 70 70 69 66 64 62 58 55 51 48 44 41 39 37 35 34 33 32 32 31 30 29 29 28 27 26 26 26 26 26 26
56 58 59 61 63 65 66 67 67 67 68 68 68 67 67 65 63 60 57 53 50 47 43 40 38 36 34 33 32 31 30 30 29 28 27 27 26 25 25 25 25 25 25 25
58 60 61 63 65 66 67 67 67 67 67 67 65 63 62 61 59 56 53 49 46 43 39 37 35 33 32 31 30 29 29 28 27 27 26 26 25 24 23 23 24 24 24 24
60 61 63 64 65 66 67 67 67 66 66 65 62 59 58 56 54 51 48 45 42 38 35 33 32 31 30 29 28 27 27 26 25 25 24 24 23 22 22 22 23 23 23 22
Wind_Direction
262 264 266 268 270 273 276 279 282 284 284 283 280 281 282 282 283 284 286 288 291 293 296 297 298 300 301 302 303 304 304 304 304 305 305 305 304 304 304 304 304 303 303 302
262 265 267 268 271 275 277 280 283 284 285 282 280 280 280 281 283 285 287 290 292 294 296 297 299 301 302 303 304 304 305 305 305 305 305 306 306 306 306 306 305 305 304 302
264 265 267 269 273 275 278 280 282 283 284 282 281 279 279 281 283 286 288 290 293 295 297 298 300 301 302 304 304 305 305 306 306 306 307 307 307 308 307 307 306 305 304 303
267 266 267 272 273 276 278 279 280 282 282 281 281 280 280 282 284 286 288 291 293 296 298 299 301 302 304 305 305 306 307 308 308 308 308 309 309 309 309 308 307 306 305 304
267 269 270 272 277 278 278 277 280 281 280 280 280 281 282 283 285 288 290 292 295 297 299 300 302 303 305 306 306 307 308 309 309 309 310 310 310 310 309 308 308 307 306 305
268 271 273 276 276 277 278 278 279 279 279 280 281 282 284 286 288 290 292 294 296 299 300 302 304 305 306 307 307 308 309 310 310 311 311 311 311 310 309 309 308 308 307 307
269 271 274 278 279 278 278 279 278 278 279 280 281 283 285 287 289 292 294 296 298 300 302 304 305 306 307 308 309 310 311 311 311 312 311 311 311 310 309 309 308 308 308 308
268 270 275 277 278 278 278 278 279 280 281 282 283 285 287 289 291 293 295 298 300 302 304 305 306 307 308 309 310 311 311 312 312 312 312 311 311 310 309 309 309 309 308 308
268 270 273 276 276 277 277 278 280 281 282 283 285 287 289 291 293 295 297 300 302 303 305 306 307 308 309 310 311 311 312 313 313 312 312 311 310 310 310 310 309 309 309 309
268 270 272 273 274 275 277 279 280 282 283 284 286 288 291 293 295 298 300 302 303 305 306 307 308 309 310 311 311 312 313 313 313 312 311 311 311 311 311 311 310 310 310 310
269 270 270 271 272 275 277 279 281 282 284 286 288 291 293 295 298 300 302 303 304 306 307 308 309 310 311 311 312 313 313 313 313 312 312 311 311 311 312 311 312 312 311 311
268 269 269 271 273 275 278 280 282 284 286 288 291 293 295 298 300 301 302 304 305 306 307 308 309 310 311 312 312 313 313 313 313 312 312 311 311 311 312 312 312 313 313 313
266 267 268 271 274 276 279 281 283 286 288 290 293 295 297 299 301 302 303 305 306 307 308 309 310 311 312 312 312 313 313 313 312 312 312 312 312 312 312 312 312 313 313 313
266 268 270 272 275 277 280 282 285 287 290 292 294 296 298 300 302 303 304 305 306 307 308 309 310 311 312 312 312 312 313 312 312 312 312 312 312 313 313 313 313 313 313 314
266 268 271 274 276 279 282 284 286 289 291 293 295 297 299 301 302 303 304 305 306 308 309 309 310 311 311 311 311 312 312 311 311 311 312 312 312 313 314 314 314 314 315 315
267 269 273 276 278 281 283 285 288 290 292 294 296 298 300 301 302 303 305 306 307 308 309 309 310 310 310 310 311 311 311 311 311 311 311 312 312 313 314 315 315 315 316 316
270 273 276 278 280 282 285 287 289 291 293 295 297 298 300 301 302 303 305 306 307 308 309 309 310 310 310 310 310 310 310 310 310 311 311 312 313 313 314 315 315 316 316 317
273 276 278 280 282 284 287 289 291 293 295 296 297 299 300 301 302 304 305 306 307 308 308 309 309 310 310 310 309 309 309 309 310 310 311 312 312 314 315 315 316 317 317 318
276 278 280 282 285 287 289 291 293 294 295 297 298 299 301 302 303 304 306 307 307 307 308 308 309 309 309 309 308 308 308 309 310 311 311 312 313 314 315 316 317 318 318 318
279 281 283 285 287 289 291 292 293 295 296 298 299 300 301 303 304 305 306 307 307 307 308 308 308 308 308 307 307 307 307 308 309 310 311 311 312 313 314 315 316 318 318 319
281 284 286 288 289 291 292 293 295 296 297 299 300 301 302 303 304 305 306 306 306 306 307 307 307 307 306 306 306 306 307 308 309 310 311 311 312 313 314 315 316 317 318 319
285 286 288 289 290 291 293 294 296 297 298 299 300 301 302 303 304 304 305 306 306 306 306 306 305 305 305 305 306 306 306 307 309 310 311 311 312 313 314 315 316 317 318 319
287 288 289 290 291 292 294 295 296 297 299 300 301 301 302 303 304 304 305 305 305 305 305 305 304 303 304 304 305 305 306 307 309 310 311 311 312 313 314 315 316 317 319 320
287 288 289 290 292 293 294 295 297 298 299 300 301 302 303 303 304 305 305 305 304 304 304 303 302 302 302 303 304 305 306 308 309 310 311 311 311 312 313 314 316 318 320 321
288 289 290 291 293 294 295 296 297 298 299 300 302 302 303 303 304 304 304 304 303 303 302 301 300 300 301 302 304 305 307 308 309 309 310 311 311 311 312 314 316 318 320 321
288 290 291 293 294 295 296 297 298 299 300 301 301 302 302 303 303 303 303 302 301 301 300 299 298 299 299 301 303 305 306 308 308 309 311 312 311 310 312 314 316 318 320 321
289 291 292 294 295 296 297 298 299 300 300 301 301 301 302 302 302 302 301 300 300 299 298 297 297 297 298 300 302 303 305 307 308 309 310 311 310 310 312 314 316 318 320 320
Height
5741 5741 5741 5742 5742 5741 5740 5739 5737 5738 5737 5736 5730 5728 5726 5724 5721 5719 5716 5713 5710 5707 5703 5699 5694 5690 5685 5679 5672 5666 5659 5651 5643 5635 5626 5617 5607 5597 5587 5576 5564 5553 5542 5531
5733 5733 5731 5732 5734 5733 5731 5730 5728 5727 5727 5725 5722 5719 5717 5714 5711 5709 5706 5703 5700 5696 5692 5687 5682 5677 5671 5665 5658 5650 5642 5634 5625 5616 5607 5597 5586 5576 5565 5553 5541 5529 5518 5507
5723 5723 5721 5723 5727 5724 5722 5721 5719 5717 5717 5714 5712 5710 5707 5705 5702 5699 5696 5693 5689 5685 5680 5675 5669 5664 5657 5650 5643 5634 5626 5617 5607 5597 5587 5576 5565 5553 5541 5530 5519 5507 5496 5485
5712 5713 5711 5718 5716 5715 5712 5711 5710 5708 5706 5704 5702 5700 5697 5695 5692 5689 5685 5682 5677 5673 5668 5662 5656 5649 5642 5634 5626 5617 5608 5598 5587 5576 5566 5555 5543 5531 5519 5507 5496 5486 5476 5466
5701 5700 5700 5706 5706 5703 5701 5701 5700 5698 5696 5694 5692 5689 5687 5684 5681 5678 5674 5670 5665 5660 5655 5648 5641 5634 5627 5618 5609 5599 5590 5579 5567 5556 5545 5534 5522 5510 5498 5486 5477 5467 5458 5448
5691 5690 5689 5695 5695 5692 5691 5690 5690 5687 5685 5683 5681 5679 5677 5673 5669 5666 5661 5657 5652 5647 5640 5633 5626 5618 5610 5601 5591 5582 5571 5560 5548 5535 5523 5512 5501 5489 5478 5467 5458 5449 5441 5432
5681 5679 5679 5683 5681 5680 5681 5681 5678 5676 5674 5672 5670 5668 5665 5661 5657 5653 5649 5644 5638 5632 5625 5617 5609 5601 5593 5583 5573 5563 5552 5541 5529 5516 5503 5492 5481 5470 5459 5450 5441 5433 5426 5418
5671 5669 5672 5671 5670 5669 5669 5667 5666 5664 5663 5661 5659 5656 5653 5649 5645 5640 5635 5630 5624 5618 5610 5601 5592 5584 5575 5566 5556 5546 5534 5523 5511 5498 5485 5473 5462 5453 5443 5433 5426 5418 5411 5404
5661 5662 5661 5660 5658 5657 5656 5656 5654 5653 5651 5649 5647 5643 5640 5636 5632 5627 5622 5616 5609 5602 5594 5585 5575 5565 5556 5547 5537 5527 5516 5504 5492 5481 5469 5457 5446 5437 5428 5419 5411 5404 5397 5390
5649 5649 5649 5647 5646 5646 5645 5644 5643 5641 5640 5637 5634 5631 5627 5623 5618 5613 5607 5600 5593 5585 5577 5568 5558 5548 5538 5528 5518 5508 5497 5486 5475 5464 5454 5443 5433 5423 5414 5406 5398 5390 5384 5378
5637 5637 5636 5636 5635 5635 5634 5633 5631 5629 5627 5624 5621 5617 5613 5609 5603 5598 5591 5584 5576 5568 5560 5551 5542 5531 5520 5509 5499 5490 5479 5468 5458 5447 5437 5429 5420 5411 5402 5394 5384 5377 5371 5365
5626 5626 5625 5625 5625 5624 5623 5621 5619 5617 5614 5611 5607 5604 5599 5594 5588 5582 5575 5568 5560 5552 5543 5534 5524 5514 5503 5492 5481 5471 5462 5452 5442 5432 5423 5414 5407 5401 5392 5383 5375 5366 5359 5352
5614 5614 5614 5614 5614 5613 5611 5609 5607 5604 5601 5598 5594 5590 5585 5579 5573 5566 5558 5551 5543 5534 5525 5516 5507 5497 5486 5476 5465 5454 5444 5435 5427 5418 5409 5401 5393 5386 5381 5375 5367 5357 5349 5342
5602 5603 5603 5603 5602 5601 5599 5597 5594 5591 5588 5584 5580 5575 5569 5563 5557 5550 5542 5534 5525 5517 5508 5499 5489 5480 5469 5459 5449 5440 5430 5420 5412 5404 5396 5389 5381 5374 5367 5361 5356 5350 5342 5334
5592 5592 5592 5591 5590 5589 5587 5584 5581 5578 5574 5570 5565 5559 5553 5548 5541 5534 5525 5517 5509 5501 5491 5482 5473 5463 5453 5443 5434 5425 5416 5407 5400 5392 5385 5377 5370 5364 5357 5350 5344 5339 5333 5326
5581 5581 5581 5580 5578 5576 5574 5571 5568 5564 5560 5555 5550 5544 5538 5531 5525 5517 5509 5500 5492 5484 5475 5465 5456 5447 5437 5427 5419 5411 5403 5394 5387 5380 5373 5367 5360 5353 5347 5341 5335 5329 5323 5317
5570 5570 5569 5568 5566 5563 5561 5557 5554 5550 5545 5540 5535 5529 5522 5516 5509 5502 5494 5485 5475 5467 5457 5447 5439 5430 5421 5412 5404 5397 5390 5383 5376 5369 5362 5356 5350 5343 5337 5331 5325 5320 5314 5307
5558 5558 5556 5555 5552 5550 5546 5543 5539 5534 5529 5524 5518 5512 5506 5499 5491 5485 5477 5469 5460 5451 5441 5430 5422 5414 5406 5397 5390 5384 5377 5371 5365 5359 5352 5346 5340 5334 5328 5322 5317 5311 5306 5300
5546 5545 5543 5541 5538 5535 5532 5528 5523 5518 5513 5507 5502 5496 5489 5481 5473 5466 5459 5451 5441 5434 5427 5416 5407 5399 5392 5384 5377 5372 5366 5360 5354 5349 5343 5337 5331 5325 5319 5314 5309 5303 5298 5293
5533 5531 5529 5527 5524 5520 5516 5512 5507 5502 5496 5490 5484 5478 5472 5465 5456 5448 5441 5434 5424 5414 5408 5401 5393 5385 5378 5372 5366 5360 5355 5349 5344 5339 5333 5328 5322 5317 5312 5306 5301 5296 5291 5286
5520 5518 5515 5512 5509 5505 5500 5495 5490 5486 5480 5473 5467 5460 5454 5448 5439 5431 5423 5417 5410 5399 5392 5385 5378 5371 5366 5360 5355 5349 5344 5339 5334 5329 5324 5319 5314 5309 5304 5299 5294 5290 5285 5280
5506 5503 5500 5497 5493 5489 5484 5479 5474 5469 5463 5457 5450 5442 5435 5429 5422 5415 5406 5397 5391 5384 5377 5371 5364 5359 5353 5349 5344 5339 5334 5330 5325 5320 5315 5310 5306 5301 5297 5292 5288 5283 5278 5274
5491 5488 5485 5481 5477 5474 5469 5463 5457 5452 5446 5439 5432 5424 5417 5410 5403 5396 5391 5384 5375 5369 5363 5357 5352 5347 5342 5338 5334 5329 5325 5320 5316 5311 5307 5302 5298 5294 5290 5286 5281 5277 5272 5268
5476 5473 5469 5465 5461 5457 5453 5447 5441 5435 5428 5422 5414 5406 5398 5392 5387 5379 5371 5366 5360 5354 5349 5344 5340 5335 5331 5328 5324 5320 5316 5311 5307 5303 5299 5295 5291 5287 5283 5279 5275 5271 5267 5262
5461 5457 5453 5449 5444 5439 5434 5429 5424 5418 5411 5405 5398 5390 5381 5373 5368 5363 5357 5351 5345 5341 5337 5333 5328 5325 5321 5318 5314 5311 5307 5303 5299 5295 5292 5288 5284 5281 5277 5273 5269 5266 5261 5257
5444 5441 5436 5432 5426 5421 5416 5410 5405 5400 5392 5387 5381 5374 5366 5359 5352 5346 5341 5337 5332 5328 5325 5321 5318 5315 5312 5308 5305 5302 5298 5295 5291 5288 5284 5281 5278 5274 5271 5267 5264 5260 5256 5252
5428 5423 5419 5415 5409 5403 5397 5392 5386 5381 5374 5367 5363 5357 5350 5344 5338 5332 5328 5324 5320 5317 5313 5311 5308 5305 5302 5299 5297 5294 5290 5287 5284 5281 5278 5275 5271 5268 5265 5262 5259 5255 5251 5247